N4EWE-13 Weather Reports


time (UTC)temp
F
wind
direction
speed
knots
gust
knots
rain 1hr
in
rain 24hr
in
rain mn
in
humidity
%
barometer
mb
20260504202035 82 259 2.6 7.0 0.00 0.00 0.00 32 1013.9
20260504201055 82 180 0.9 4.3 0.00 0.00 0.00 31 1014.0
20260504200050 82 294 3.5 7.8 0.00 0.00 0.00 31 1014.0
20260504195046 82 34 1.7 6.1 0.00 0.00 0.00 32 1014.0
20260504194045 82 74 3.5 9.6 0.00 0.00 0.00 32 1014.3
20260504193041 82 279 1.7 7.0 0.00 0.00 0.00 32 1014.4
20260504192041 81 167 1.7 7.0 0.00 0.00 0.00 33 1014.6
20260504191114 81 324 2.6 7.0 0.00 0.00 0.00 33 1014.5
20260504190052 81 321 3.5 7.8 0.00 0.00 0.00 33 1014.6
20260504185028 80 293 1.7 7.8 0.00 0.00 0.00 33 1014.6
20260504184051 80 50 2.6 6.1 0.00 0.00 0.00 32 1014.6
20260504183047 80 261 1.7 6.1 0.00 0.00 0.00 32 1014.8
20260504182051 80 174 1.7 5.2 0.00 0.00 0.00 33 1014.9
20260504181130 80 140 1.7 8.7 0.00 0.00 0.00 33 1015.1
20260504180043 80 326 1.7 7.0 0.00 0.00 0.00 32 1015.2
20260504175040 79 239 1.7 6.1 0.00 0.00 0.00 31 1015.3
20260504174042 79 214 2.6 6.1 0.00 0.00 0.00 34 1015.4
20260504173034 78 252 1.7 7.8 0.00 0.00 0.00 33 1015.4
20260504172029 78 231 2.6 6.1 0.00 0.00 0.00 34 1015.4
20260504171055 77 173 2.6 8.7 0.00 0.00 0.00 34 1015.6
20260504151048 69 267 2.6 6.1 0.00 0.00 0.00 50 1016.7
20260504150112 68 302 1.7 5.2 0.00 0.00 0.00 52 1016.6
20260504141101 60 243 1.7 7.0 0.00 0.00 0.00 72 1017.0
20260504081105 45 35 0.0 0.9 0.00 0.00 0.00 83 1017.2
20260504045045 45 44 0.0 0.0 0.00 0.00 0.00 79 1017.6
20260504044046 45 44 0.0 0.9 0.00 0.00 0.00 79 1017.5
20260504043044 45 44 0.0 0.0 0.00 0.00 0.00 78 1017.6
20260504042038 45 44 0.0 0.0 0.00 0.00 0.00 78 1017.6
20260504041048 45 44 0.0 0.0 0.00 0.00 0.00 78 1017.5
20260504040025 45 44 0.0 0.0 0.00 0.00 0.00 77 1017.5
20260504035048 45 44 0.0 0.9 0.00 0.00 0.00 77 1017.5
20260504034029 46 44 0.0 0.0 0.00 0.00 0.00 77 1017.7
20260504033036 46 44 0.0 0.0 0.00 0.00 0.00 76 1017.5
20260504032031 46 44 0.0 0.0 0.00 0.00 0.00 76 1017.5
20260504031051 46 44 0.0 0.0 0.00 0.00 0.00 75 1017.5
20260504030105 47 44 0.0 0.0 0.00 0.00 0.00 74 1017.4
20260504025047 47 44 0.0 0.0 0.00 0.00 0.00 73 1017.3
20260504024029 47 44 0.0 0.0 0.00 0.00 0.00 72 1017.2
20260504023034 48 44 0.0 0.0 0.00 0.00 0.00 71 1017.2
20260504022044 49 44 0.0 0.0 0.00 0.00 0.00 70 1017.2
20260504021130 49 44 0.0 0.0 0.00 0.00 0.00 69 1017.1
20260504020025 50 44 0.0 0.0 0.00 0.00 0.00 68 1017.2
20260504015033 50 44 0.0 0.0 0.00 0.00 0.00 67 1017.2
20260504014037 51 44 0.0 0.0 0.00 0.00 0.00 66 1017.2
20260504013043 52 44 0.0 0.0 0.00 0.00 0.00 64 1017.1
20260504012049 52 44 0.0 0.0 0.00 0.00 0.00 62 1016.9
20260504011105 53 44 0.0 0.0 0.00 0.00 0.00 60 1016.9
20260504010049 54 44 0.0 0.0 0.00 0.00 0.00 58 1016.7
20260504005028 55 44 0.0 0.0 0.00 0.00 0.00 55 1016.6
20260504004038 56 44 0.0 0.0 0.00 0.00 0.00 54 1016.7
20260504003042 57 44 0.0 0.0 0.00 0.00 0.00 52 1016.5
20260504002041 58 44 0.0 0.0 0.00 0.00 0.00 50 1016.5
20260504001102 59 44 0.0 0.0 0.00 0.00 0.00 47 1016.5
20260504000035 60 44 0.0 0.0 0.00 0.00 0.00 47 1016.2
20260503235102 61 44 0.0 0.0 0.00 0.00 0.00 46 1016.2
20260503234040 61 44 0.0 0.0 0.00 0.00 0.00 45 1016.1
20260503233035 62 44 0.0 0.9 0.00 0.00 0.00 41 1016.3
20260503232034 63 44 0.0 0.9 0.00 0.00 0.00 39 1016.2
20260503231054 64 40 0.9 1.7 0.00 0.00 0.00 38 1016.1
20260503230055 65 246 0.9 4.3 0.00 0.00 0.00 38 1016.0
20260503225033 65 209 0.0 2.6 0.00 0.00 0.00 34 1016.1
20260503224032 66 355 0.9 2.6 0.00 0.00 0.00 32 1016.2
20260503223055 67 194 0.9 2.6 0.00 0.00 0.00 33 1016.2
20260503222033 68 30 0.9 6.1 0.00 0.00 0.00 32 1016.2
20260503221111 68 239 0.9 6.1 0.00 0.00 0.00 35 1016.2
20260503220040 68 178 0.9 4.3 0.00 0.00 0.00 32 1016.1
20260503215107 68 177 1.7 6.1 0.00 0.00 0.00 32 1016.2
20260503214046 68 29 0.9 5.2 0.00 0.00 0.00 30 1016.4
20260503213038 68 5 1.7 5.2 0.00 0.00 0.00 30 1016.5
20260503212037 68 236 2.6 7.0 0.00 0.00 0.00 30 1016.5
20260503211048 68 342 2.6 5.2 0.00 0.00 0.00 30 1016.5
20260503210039 68 320 0.9 6.1 0.00 0.00 0.00 31 1016.6
20260503205039 68 184 0.9 5.2 0.00 0.00 0.00 32 1016.6
20260503204039 68 205 1.7 5.2 0.00 0.00 0.00 30 1016.6
20260503203033 67 185 1.7 3.5 0.00 0.00 0.00 32 1016.7